Date,TemperatureHighF,TemperatureAvgF,TemperatureLowF,DewpointHighF,DewpointAvgF,DewpointLowF,HumidityHigh,HumidityAvg,HumidityLow,PressureMaxIn,PressureMinIn,WindSpeedMaxMPH,WindSpeedAvgMPH,GustSpeedMaxMPH,PrecipitationSumIn
2013-1-1,20.0,11.1,1.0,14.0,5.7,-3.0,84,79,68,0.00,40.00,7,4,12,0.01
2013-1-2,19.0,10.7,-5.0,10.0,5.0,-11.0,86,78,60,0.00,40.00,5,3,7,0.01
2013-1-3,18.0,4.2,-5.0,6.0,-2.0,-11.0,83,76,55,0.00,40.00,5,2,7,0.01
2013-1-4,24.0,7.1,-6.0,17.0,0.6,-11.0,83,75,57,0.00,40.00,7,3,14,0.01
2013-1-5,27.0,17.0,5.0,19.0,11.8,1.0,89,80,65,0.00,40.00,5,3,7,0.01
2013-1-6,30.0,20.0,12.0,23.0,15.3,9.0,89,82,62,0.00,40.00,8,4,13,0.01
2013-1-7,39.0,30.4,19.0,27.0,20.2,15.0,88,66,57,0.00,40.00,17,8,27,0.01
2013-1-8,39.0,35.7,33.0,30.0,22.2,15.0,71,58,42,0.00,40.00,21,12,30,0.01
2013-1-9,43.0,39.6,36.0,29.0,25.5,23.0,67,57,49,0.00,40.00,25,16,35,0.01
2013-1-10,40.0,23.5,9.0,28.0,17.6,3.0,95,79,50,0.00,40.00,18,12,27,0.05
2013-1-11,9.0,5.5,-5.0,4.0,-1.8,-11.0,79,71,61,0.00,40.00,11,6,16,0.02
2013-1-12,6.0,-4.2,-16.0,0.0,-10.7,-22.0,80,74,66,0.00,40.00,8,4,10,0.02
2013-1-13,9.0,-3.8,-13.0,-2.0,-10.8,-19.0,76,71,60,0.00,40.00,9,3,11,0.01
2013-1-14,12.0,-0.6,-14.0,8.0,-6.4,-21.0,86,76,71,0.00,40.00,8,4,11,0.04
2013-1-15,27.0,15.7,7.0,21.0,12.1,4.0,90,85,76,0.00,40.00,5,3,10,0.05
2013-1-16,32.0,16.3,3.0,19.0,9.8,-1.0,87,76,56,0.00,40.00,6,4,12,0.01
2013-1-17,28.0,14.2,3.0,16.0,7.7,-2.0,86,75,57,0.00,40.00,6,3,11,0.00
2013-1-18,41.0,27.6,15.0,19.0,12.9,8.0,73,54,41,0.00,40.00,18,6,24,0.00
2013-1-19,37.0,20.4,9.0,15.0,7.8,0.0,69,58,38,0.00,40.00,5,4,9,0.00
2013-1-20,32.0,19.5,8.0,19.0,10.0,2.0,80,66,52,0.00,40.00,5,3,10,0.01
2013-1-21,35.0,19.7,10.0,22.0,10.6,4.0,79,68,52,0.00,40.00,5,3,13,0.01
2013-1-22,29.0,14.4,4.0,14.0,5.6,-3.0,79,68,52,0.00,40.00,5,2,7,0.01
2013-1-23,44.0,21.7,11.0,25.0,12.3,6.0,84,69,35,0.00,40.00,11,4,20,0.01
2013-1-24,44.0,36.1,20.0,31.0,25.0,17.0,90,66,35,0.00,40.00,20,8,31,0.01
2013-1-25,41.0,33.8,20.0,32.0,26.3,17.0,89,75,61,0.00,40.00,20,8,31,0.01
2013-1-26,47.0,36.2,29.0,32.0,29.3,26.0,89,77,53,0.00,40.00,19,10,34,0.01
2013-1-27,30.0,24.2,15.0,28.0,20.2,12.0,99,85,67,0.00,40.00,7,4,11,0.03
2013-1-28,32.0,23.8,19.0,17.0,14.2,12.0,82,68,48,0.00,40.00,15,10,21,0.01
2013-1-29,25.0,20.2,17.0,21.0,14.1,6.0,94,78,60,0.00,40.00,14,6,20,0.02
2013-1-30,38.0,29.1,18.0,29.0,22.6,14.0,91,77,51,0.00,40.00,14,6,27,0.01
2013-1-31,38.0,35.3,32.0,31.0,29.1,23.0,91,79,54,0.00,40.00,8,5,16,0.00
2013-2-1,40.0,33.2,27.0,32.0,26.6,21.0,100,77,52,0.00,40.00,8,5,14,0.03
2013-2-2,39.0,28.1,20.0,26.0,21.0,16.0,92,76,55,0.00,40.00,7,4,10,0.01
2013-2-3,41.0,27.0,17.0,25.0,19.6,14.0,90,75,44,0.00,40.00,6,3,10,0.02
2013-2-4,41.0,33.6,25.0,27.0,24.0,21.0,89,69,50,0.00,40.00,14,6,25,0.03
2013-2-5,44.0,31.8,25.0,30.0,26.4,22.0,95,81,54,0.00,40.00,17,4,23,0.01
2013-2-6,39.0,30.9,23.0,28.0,23.3,19.0,90,74,49,0.00,40.00,8,4,14,0.01
2013-2-7,41.0,29.8,20.0,23.0,18.1,15.0,82,64,39,0.00,40.00,15,7,23,0.00
2013-2-8,36.0,25.5,16.0,24.0,18.7,13.0,91,76,53,0.00,40.00,10,4,16,0.00
2013-2-9,32.0,25.9,20.0,23.0,18.9,16.0,89,75,52,0.00,40.00,17,7,25,0.00
2013-2-10,30.0,23.7,14.0,22.0,17.8,10.0,94,79,56,0.00,40.00,16,7,24,0.01
2013-2-11,32.0,19.6,11.0,19.0,12.3,7.0,88,74,56,0.00,40.00,7,4,17,0.02
2013-2-12,36.0,27.5,14.0,26.0,20.8,10.0,88,76,58,0.00,40.00,14,5,23,0.01
2013-2-13,43.0,37.7,32.0,25.0,21.3,15.0,76,53,33,0.00,40.00,14,9,27,0.00
2013-2-14,38.0,32.8,30.0,26.0,18.9,14.0,81,57,37,0.00,40.00,13,6,21,0.01
2013-2-15,41.0,31.8,23.0,26.0,22.8,19.0,92,71,51,0.00,40.00,10,4,16,0.01
2013-2-16,51.0,33.2,18.0,30.0,23.2,15.0,92,71,35,0.00,40.00,18,6,26,0.01
2013-2-17,35.0,30.0,25.0,30.0,22.2,16.0,89,73,47,0.00,40.00,11,6,20,0.01
2013-2-18,38.0,29.5,24.0,22.0,14.9,9.0,92,58,31,0.00,40.00,14,8,21,0.01
2013-2-19,41.0,31.7,25.0,21.0,14.4,8.0,79,50,31,0.00,40.00,15,10,22,0.00
2013-2-20,34.0,25.8,20.0,25.0,19.1,16.0,95,77,50,0.00,40.00,13,6,20,0.01
2013-2-21,31.0,23.4,8.0,18.0,10.3,3.0,81,58,37,0.00,40.00,9,4,14,0.02
2013-2-22,40.0,31.3,23.0,23.0,17.3,12.0,83,59,35,0.00,40.00,22,11,32,0.01
2013-2-23,34.0,30.0,24.0,25.0,15.2,7.0,90,56,36,0.00,40.00,21,10,30,0.05
2013-2-24,36.0,24.8,10.0,17.0,12.2,6.0,81,61,37,0.00,40.00,9,5,15,0.01
2013-2-25,36.0,26.4,16.0,23.0,15.5,12.0,86,64,40,0.00,40.00,22,7,31,0.01
2013-2-26,32.0,26.2,20.0,20.0,14.8,12.0,77,62,46,0.00,40.00,14,5,20,0.01
2013-2-27,43.0,26.1,13.0,16.0,12.4,7.0,83,61,28,0.00,40.00,20,7,29,0.01
2013-2-28,40.0,28.6,17.0,27.0,19.7,13.0,87,70,47,0.00,40.00,8,3,13,0.01
2013-3-1,53.0,39.2,29.0,31.0,29.1,27.0,93,70,39,0.00,40.00,11,5,22,0.00
2013-3-2,57.0,38.4,26.0,29.0,26.5,24.0,94,66,28,0.00,40.00,17,6,28,0.01
2013-3-3,40.0,33.2,26.0,34.0,19.5,2.0,100,63,24,0.00,40.00,22,8,38,0.02
2013-3-4,27.0,20.8,15.0,20.0,11.3,6.0,95,69,42,0.00,40.00,11,6,18,0.01
2013-3-5,43.0,30.0,15.0,17.0,11.1,7.0,76,48,27,0.00,40.00,16,11,23,0.00
2013-3-6,48.0,36.4,31.0,34.0,22.6,15.0,99,60,33,0.00,40.00,21,9,47,0.01
2013-3-7,44.0,34.4,26.0,29.0,19.2,13.0,91,56,29,0.00,40.00,14,9,20,0.01
2013-3-8,43.0,27.2,15.0,20.0,14.9,0.0,89,64,16,0.00,40.00,12,5,19,0.01
2013-3-9,42.0,29.3,15.0,20.0,16.4,10.0,85,62,38,0.00,40.00,16,6,25,0.00
2013-3-10,45.0,32.0,15.0,29.0,18.8,12.0,89,63,31,0.00,40.00,10,4,28,0.00
2013-3-11,44.0,34.1,23.0,29.0,17.6,6.0,94,59,22,0.00,40.00,19,7,31,0.00
2013-3-12,53.0,37.2,18.0,29.0,20.6,11.0,77,53,33,0.00,40.00,20,8,30,0.01
2013-3-13,59.0,47.5,38.0,29.0,25.9,21.0,69,45,24,0.00,40.00,21,9,33,0.01
2013-3-14,63.0,47.7,34.0,28.0,25.4,22.0,69,45,22,0.00,40.00,18,10,26,0.01
2013-3-15,54.0,45.5,38.0,31.0,26.6,24.0,65,48,31,0.00,40.00,19,8,28,0.01
2013-3-16,49.0,39.6,31.0,28.0,23.0,15.0,80,55,26,0.00,40.00,14,6,22,0.01
2013-3-17,38.0,30.7,26.0,32.0,15.8,5.0,100,57,35,0.00,40.00,24,10,38,0.10
2013-3-18,38.0,28.5,23.0,25.0,11.9,7.0,96,52,27,0.00,40.00,19,12,29,0.01
2013-3-19,41.0,27.8,17.0,24.0,16.8,11.0,95,67,32,0.00,40.00,9,5,13,0.01
2013-3-20,55.0,40.7,23.0,33.0,22.9,11.0,95,51,33,0.00,40.00,25,15,36,0.02
2013-3-21,35.0,29.9,24.0,29.0,15.5,6.0,90,58,29,0.00,40.00,15,6,27,0.02
2013-3-22,30.0,21.6,13.0,16.0,11.6,4.0,86,67,33,0.00,40.00,15,6,25,0.00
2013-3-23,30.0,20.6,12.0,13.0,7.9,5.0,79,59,38,0.00,40.00,14,5,21,0.00
2013-3-24,34.0,21.8,12.0,12.0,7.7,-1.0,83,59,22,0.00,40.00,6,3,13,0.00
2013-3-25,44.0,27.0,11.0,16.0,7.2,3.0,78,49,18,0.00,40.00,14,5,23,0.00
2013-3-26,50.0,35.9,25.0,20.0,18.3,16.0,74,51,29,0.00,40.00,8,4,15,0.00
2013-3-27,54.0,36.7,18.0,32.0,21.2,15.0,87,59,27,0.00,40.00,13,4,18,0.01
2013-3-28,56.0,41.4,23.0,38.0,29.0,21.0,96,67,29,0.00,40.00,10,4,20,0.02
2013-3-29,50.0,40.1,30.0,39.0,34.3,29.0,98,81,59,0.00,40.00,13,4,22,0.02
2013-3-30,55.0,41.3,27.0,34.0,26.3,-99.9,96,64,28,0.00,40.00,7,3,13,0.01
2013-3-31,59.0,41.3,22.0,27.0,24.1,19.0,89,56,27,0.00,40.00,13,6,19,0.01
2013-4-1,61.0,42.9,23.0,27.0,23.5,20.0,89,53,23,0.00,40.00,11,5,21,0.01
2013-4-2,63.0,43.5,23.0,31.0,25.9,19.0,86,54,30,0.00,40.00,15,5,24,0.01
2013-4-3,60.0,44.8,34.0,33.0,28.0,22.0,85,57,23,0.00,40.00,12,4,18,0.01
2013-4-4,64.0,48.2,28.0,40.0,29.8,25.0,89,53,22,0.00,40.00,18,7,29,0.01
2013-4-5,57.0,47.4,38.0,40.0,31.3,21.0,84,57,25,0.00,40.00,17,8,28,0.01
2013-4-6,50.0,42.5,36.0,38.0,32.0,27.0,82,67,50,0.00,40.00,19,10,32,0.04
2013-4-7,48.0,36.1,28.0,35.0,31.5,27.0,100,85,55,0.00,40.00,16,6,27,0.09
2013-4-8,30.0,23.9,17.0,30.0,15.8,7.0,98,72,52,0.00,40.00,19,16,28,0.08
2013-4-9,43.0,26.2,12.0,14.0,8.7,4.0,76,52,21,0.00,40.00,14,6,22,0.01
2013-4-10,56.0,39.1,20.0,37.0,24.4,14.0,88,58,37,0.00,40.00,15,6,24,0.02
2013-4-11,50.0,41.1,31.0,37.0,24.6,14.0,95,57,26,0.00,40.00,16,10,26,0.01
2013-4-12,55.0,40.1,29.0,24.0,18.4,4.0,78,47,12,0.00,40.00,11,5,25,0.01
2013-4-13,47.0,38.8,26.0,32.0,17.8,-4.0,96,47,14,0.00,40.00,27,13,40,0.01
2013-4-14,36.0,28.5,21.0,27.0,21.4,10.0,98,77,51,0.00,40.00,16,8,24,0.11
2013-4-15,31.0,23.4,18.0,11.0,9.5,8.0,69,56,41,0.00,40.00,17,14,29,0.01
2013-4-16,32.0,24.1,18.0,12.0,8.6,6.0,71,53,33,0.00,40.00,18,14,30,0.00
2013-4-17,40.0,26.1,13.0,12.0,6.2,-1.0,85,49,19,0.00,40.00,12,7,21,0.01
2013-4-18,48.0,33.2,16.0,20.0,12.9,4.0,66,45,28,0.00,40.00,14,6,23,0.01
2013-4-19,51.0,41.3,29.0,35.0,27.2,20.0,78,58,42,0.00,40.00,14,7,25,0.00
2013-4-20,52.0,43.7,36.0,36.0,28.3,20.0,93,60,29,0.00,40.00,20,7,38,0.00
2013-4-21,43.0,33.8,20.0,32.0,24.5,14.0,100,71,40,0.00,40.00,20,12,31,0.04
2013-4-22,37.0,26.8,20.0,17.0,13.3,10.0,86,59,33,0.00,40.00,15,10,24,0.01
2013-4-23,43.0,29.5,13.0,19.0,13.0,8.0,83,54,26,0.00,40.00,19,6,26,0.00
2013-4-24,57.0,39.7,19.0,21.0,16.4,9.0,85,46,15,0.00,40.00,15,6,23,0.01
2013-4-25,62.0,47.8,27.0,22.0,17.7,10.0,61,33,17,0.00,40.00,12,6,25,0.00
2013-4-26,68.0,51.6,32.0,27.0,23.5,20.0,70,38,16,0.00,40.00,15,8,24,0.01
2013-4-27,67.0,56.0,43.0,29.0,23.1,14.0,55,32,13,0.00,40.00,20,13,37,0.01
2013-4-28,59.0,51.1,43.0,35.0,28.1,17.0,69,44,20,0.00,40.00,22,11,33,0.01
2013-4-29,52.0,46.6,35.0,35.0,22.8,12.0,73,41,23,0.00,40.00,25,16,40,0.01
2013-4-30,38.0,31.2,25.0,28.0,16.8,5.0,98,61,27,0.00,40.00,13,8,24,0.03
2013-5-1,46.0,31.8,20.0,26.0,19.9,13.0,94,67,27,0.00,40.00,13,5,21,0.02
2013-5-2,61.0,42.2,20.0,21.0,15.3,9.0,80,42,14,0.00,40.00,10,5,17,0.02
2013-5-3,53.0,45.2,40.0,41.0,28.4,17.0,93,54,32,0.00,40.00,16,6,23,0.04
2013-5-4,56.0,46.9,40.0,39.0,35.3,32.0,97,67,42,0.00,40.00,18,12,29,0.05
2013-5-5,66.0,49.5,25.0,36.0,31.3,23.0,96,57,23,0.00,40.00,14,6,21,0.01
2013-5-6,72.0,52.6,30.0,33.0,28.5,25.0,85,47,18,0.00,40.00,8,4,13,0.01
2013-5-7,68.0,53.6,34.0,33.0,29.7,26.0,74,44,23,0.00,40.00,20,9,32,0.01
2013-5-8,73.0,56.8,33.0,38.0,31.7,24.0,85,43,16,0.00,40.00,12,6,23,0.01
2013-5-9,74.0,56.0,38.0,39.0,34.4,29.0,88,51,19,0.00,40.00,13,6,24,0.01
2013-5-10,70.0,53.7,35.0,37.0,30.3,-99.9,91,50,23,0.00,40.00,17,8,25,0.01
2013-5-11,77.0,57.1,37.0,36.0,31.1,-99.9,81,44,16,0.00,40.00,19,6,29,0.01
2013-5-12,84.0,65.8,46.0,39.0,35.1,28.0,67,38,13,0.00,40.00,15,8,29,0.00
2013-5-13,83.0,64.0,47.0,45.0,38.0,19.0,76,45,10,0.00,40.00,26,8,44,0.01
2013-5-14,66.0,53.1,36.0,41.0,29.4,22.0,78,44,19,0.00,40.00,23,10,32,0.01
2013-5-15,66.0,51.7,35.0,41.0,27.6,24.0,74,42,24,0.00,40.00,19,8,38,0.01
2013-5-16,57.0,45.1,37.0,44.0,21.5,-99.9,96,71,45,0.00,40.00,19,6,27,0.08
2013-5-17,51.0,45.4,38.0,47.0,38.0,-99.9,100,83,59,0.00,40.00,12,5,17,0.10
2013-5-18,55.0,48.2,45.0,46.0,43.9,40.0,100,86,64,0.00,40.00,11,6,27,0.17
2013-5-19,57.0,50.3,45.0,40.0,36.5,35.0,82,61,45,0.00,40.00,18,12,26,0.01
2013-5-20,63.0,53.4,45.0,44.0,40.2,36.0,89,63,37,0.00,40.00,13,8,21,0.07
2013-5-21,71.0,57.7,38.0,45.0,38.3,31.0,96,55,23,0.00,40.00,17,10,31,0.03
2013-5-22,63.0,51.6,36.0,43.0,39.3,35.0,98,66,39,0.00,40.00,17,10,32,0.25
2013-5-23,43.0,35.3,31.0,36.0,32.4,30.0,100,90,60,0.00,40.00,11,7,20,0.79
2013-5-24,58.0,46.4,34.0,37.0,33.6,29.0,100,66,33,0.00,40.00,22,13,32,0.09
2013-5-25,59.0,46.1,32.0,39.0,35.5,32.0,99,70,38,0.00,40.00,16,6,23,0.01
2013-5-26,63.0,46.9,33.0,43.0,38.3,33.0,100,77,38,0.00,40.00,16,4,24,0.24
2013-5-27,61.0,49.5,40.0,47.0,41.3,37.0,100,77,40,0.00,40.00,6,3,12,0.30
2013-5-28,56.0,49.4,43.0,46.0,43.1,39.0,100,81,55,0.00,40.00,17,9,26,0.38
2013-5-29,62.0,51.1,41.0,45.0,40.5,35.0,100,71,36,0.00,40.00,15,6,25,0.07
2013-5-30,46.0,44.1,43.0,45.0,42.5,40.0,98,94,89,0.00,40.00,10,7,16,0.16
2013-5-31,54.0,50.4,41.0,38.0,33.9,31.0,84,54,43,0.00,40.00,13,5,20,0.01
2013-6-1,65.0,50.2,32.0,40.0,32.6,25.0,94,58,23,0.00,40.00,11,6,16,0.00
2013-6-2,56.0,49.0,43.0,45.0,41.6,39.0,94,76,53,0.00,40.00,15,6,24,0.14
2013-6-3,60.0,47.3,41.0,42.0,40.3,36.0,100,79,42,0.00,40.00,14,6,28,0.06
2013-6-4,60.0,49.1,41.0,40.0,35.3,31.0,93,62,36,0.00,40.00,13,8,19,0.03
2013-6-5,72.0,55.0,34.0,47.0,39.1,33.0,98,61,28,0.00,40.00,8,5,14,0.01
2013-6-6,75.0,61.5,46.0,54.0,44.2,39.0,91,58,30,0.00,40.00,7,4,16,0.01
2013-6-7,78.0,62.3,48.0,48.0,43.5,35.0,88,56,26,0.00,40.00,16,6,31,0.01
2013-6-8,75.0,62.3,46.0,43.0,35.4,26.0,79,41,21,0.00,40.00,13,6,23,0.00
2013-6-9,81.0,62.9,42.0,44.0,31.5,16.0,83,40,9,0.00,40.00,21,9,35,0.00
2013-6-10,77.0,60.9,38.0,39.0,32.1,24.0,87,38,19,0.00,40.00,16,7,24,0.00
2013-6-11,71.0,60.2,50.0,53.0,45.4,36.0,93,61,33,0.00,40.00,14,5,31,0.12
2013-6-12,72.0,58.5,41.0,54.0,48.0,41.0,100,72,42,0.00,40.00,19,10,27,0.07
2013-6-13,56.0,49.4,41.0,49.0,43.3,39.0,96,80,67,0.00,40.00,17,9,25,0.24
2013-6-14,59.0,47.6,37.0,41.0,35.4,28.0,100,68,32,0.00,40.00,11,5,20,0.02
2013-6-15,71.0,54.2,34.0,37.0,33.9,29.0,91,52,22,0.00,40.00,9,5,14,0.01
2013-6-16,75.0,55.1,38.0,46.0,37.3,27.0,89,57,17,0.00,40.00,14,5,19,0.01
2013-6-17,80.0,62.5,42.0,47.0,43.5,39.0,94,55,23,0.00,40.00,14,5,21,0.01
2013-6-18,82.0,64.7,46.0,51.0,45.1,39.0,89,54,24,0.00,40.00,14,7,23,0.01
2013-6-19,66.0,57.2,46.0,49.0,45.7,40.0,91,67,53,0.00,40.00,16,12,26,0.07
2013-6-20,60.0,48.3,43.0,40.0,37.9,32.0,78,68,34,0.00,40.00,16,13,23,0.05
2013-6-21,61.0,57.2,51.0,44.0,38.5,36.0,76,51,38,0.00,40.00,15,8,23,0.15
2013-6-22,60.0,54.0,44.0,44.0,42.1,39.0,97,66,46,0.00,40.00,9,4,14,0.27
2013-6-23,71.0,55.2,37.0,48.0,40.3,36.0,95,62,33,0.00,40.00,9,4,15,0.02
2013-6-24,74.0,58.2,45.0,55.0,47.7,43.0,99,72,36,0.00,40.00,10,5,18,0.45
2013-6-25,70.0,58.7,50.0,54.0,48.0,42.0,100,72,37,0.00,40.00,11,5,19,0.23
2013-6-26,67.0,59.2,51.0,53.0,49.9,48.0,97,73,52,0.00,40.00,16,6,24,0.01
2013-6-27,81.0,64.3,46.0,52.0,48.7,45.0,100,62,29,0.00,40.00,11,6,17,0.01
2013-6-28,86.0,68.2,49.0,55.0,49.2,47.0,94,56,28,0.00,40.00,8,4,14,0.01
2013-6-29,84.0,67.6,51.0,56.0,52.0,49.0,95,61,31,0.00,40.00,16,5,23,0.01
2013-6-30,88.0,71.4,53.0,57.0,53.0,48.0,96,58,26,0.00,40.00,10,5,16,0.01
2013-7-1,91.0,73.1,51.0,57.0,53.0,43.0,97,56,19,0.00,40.00,8,5,14,0.01
2013-7-2,93.0,75.4,56.0,58.0,53.5,46.0,91,53,20,0.00,40.00,12,5,18,0.00
2013-7-3,90.0,76.3,59.0,57.0,50.3,40.0,81,45,17,0.00,40.00,15,6,23,0.01
2013-7-4,84.0,70.5,50.0,49.0,45.6,39.0,87,44,23,0.00,40.00,13,5,19,0.01
2013-7-5,81.0,68.0,55.0,50.0,41.0,35.0,78,40,24,0.00,40.00,11,6,19,0.00
2013-7-6,81.0,60.1,41.0,49.0,42.6,34.0,94,60,19,0.00,40.00,11,4,18,0.00
2013-7-7,84.0,68.5,51.0,48.0,43.9,39.0,79,46,20,0.00,40.00,12,6,26,0.00
2013-7-8,77.0,62.6,48.0,51.0,42.9,-99.9,90,54,28,0.00,40.00,18,8,29,0.00
2013-7-9,82.0,65.8,44.0,43.0,38.8,35.0,79,41,19,0.00,40.00,12,5,18,0.00
2013-7-10,92.0,67.8,44.0,41.0,32.6,-99.9,78,36,9,0.00,40.00,15,4,22,0.02
2013-7-11,82.0,66.3,50.0,52.0,42.9,37.0,82,46,20,0.00,40.00,17,5,27,0.07
2013-7-12,78.0,62.2,46.0,52.0,45.2,35.0,93,59,21,0.00,40.00,14,7,28,0.06
2013-7-13,77.0,62.6,44.0,46.0,36.9,27.0,93,47,16,0.00,40.00,16,7,24,0.02
2013-7-14,85.0,65.9,42.0,46.0,36.9,26.0,88,41,12,0.00,40.00,13,6,24,0.01
2013-7-15,92.0,67.4,43.0,47.0,34.9,24.0,80,39,9,0.00,40.00,16,6,32,0.02
2013-7-16,85.0,66.4,53.0,59.0,46.5,43.0,90,51,27,0.00,40.00,18,9,31,0.03
2013-7-17,86.0,69.8,60.0,60.0,57.1,51.0,98,68,37,0.00,40.00,12,6,18,0.36
2013-7-18,84.0,71.0,51.0,55.0,44.4,33.0,100,48,17,0.00,40.00,9,5,14,0.23
2013-7-19,87.0,67.8,45.0,45.0,37.6,28.0,88,42,12,0.00,40.00,15,6,24,0.01
2013-7-20,86.0,66.0,46.0,44.0,35.9,-99.9,73,40,13,0.00,40.00,8,4,16,0.02
2013-7-21,87.0,67.6,45.0,42.0,34.8,26.0,71,36,11,0.00,40.00,8,4,12,0.01
2013-7-22,88.0,68.0,45.0,37.0,30.4,22.0,74,31,9,0.00,40.00,15,7,24,0.01
2013-7-23,88.0,68.5,46.0,39.0,31.1,19.0,67,31,8,0.00,40.00,8,4,12,0.00
2013-7-24,90.0,68.5,46.0,42.0,31.7,18.0,74,33,7,0.00,40.00,14,6,24,0.01
2013-7-25,88.0,72.0,50.0,50.0,43.2,32.0,85,41,15,0.00,40.00,14,6,25,0.01
2013-7-26,90.0,70.6,47.0,48.0,37.3,22.0,84,40,10,0.00,40.00,19,6,27,0.01
2013-7-27,86.0,68.8,50.0,44.0,33.4,14.0,63,34,7,0.00,40.00,12,5,20,0.01
2013-7-28,80.0,66.4,49.0,45.0,35.2,28.0,59,34,15,0.00,40.00,11,5,17,0.01
2013-7-29,78.0,66.2,53.0,48.0,44.3,40.0,72,47,27,0.00,40.00,18,8,27,0.02
2013-7-30,75.0,60.1,45.0,47.0,41.8,36.0,86,56,25,0.00,40.00,10,4,16,0.01
2013-7-31,85.0,65.2,42.0,43.0,36.5,25.0,91,45,12,0.00,40.00,9,4,19,0.03
2013-8-1,70.0,60.1,49.0,57.0,46.7,35.0,92,64,28,0.00,40.00,15,8,23,0.58